Lid_Strength_Index
1 -0 -1 -1 -1 -1 -1 -1 -1 -1 -1 -1 -1 -1 -1 -1 -1 -1 -1 -1 -1 -1 -1 -1 -1 -1 -1 -1 -1 -1 -1 -1 -1 -1 -1 -1 -1 -1 -1 -1 -1 -1 -2
0 -0 -1 -1 -1 -1 -1 -1 -1 -1 -1 -1 -1 -1 -1 -1 -1 -1 -1 -1 -1 -1 -1 -1 -1 -1 -1 -1 -1 -1 -1 -1 -1 -1 -1 -1 -1 -1 -1 -1 -1 -1 -1
0 -0 -0 -1 -1 -1 -1 -1 -1 -1 -1 -1 -1 -1 -1 -1 -1 -1 -1 -1 -1 -1 -1 -1 -1 -1 -1 -1 -1 -1 -1 -1 -1 -1 -1 -0 -0 -1 -1 -1 -1 -1 -1
-0 -0 -0 -1 -1 -1 -1 -1 -1 -1 -1 -1 -1 -1 -1 -1 -1 -1 -1 -1 -1 -1 -1 -1 -1 -1 -1 -1 -1 -1 -1 -1 -1 -1 -0 -0 -0 -1 -1 -1 -1 -1 -1
0 -0 -0 -1 -1 -2 -1 -1 -1 -1 -1 -1 -1 -1 -1 -1 -1 -1 -1 -1 -1 -1 -1 -1 -1 -1 -1 -1 -1 -1 -1 -1 -1 -1 -0 0 0 -1 -1 -1 -1 -1 -1
0 0 -1 -1 -1 -1 -1 -1 -1 -1 -1 -1 -1 -1 -1 -1 -1 -1 -1 -1 -1 -1 -1 -1 -1 -1 -1 -1 -1 -1 -1 -1 -1 0 0 -0 0 -1 -1 -1 -1 -1 -1
0 -0 -0 -1 -1 -1 -1 -1 -1 -1 -1 -1 -1 -1 -1 -1 -1 -1 -1 -1 -1 -1 -1 -1 -1 -1 -1 -1 -1 -1 -1 -1 0 0 0 0 0 -1 -1 -1 -1 -1 -1
0 -0 -0 -1 -1 -1 -1 -1 -1 -1 -1 -1 -1 -1 -1 -1 -1 -1 -1 -1 -1 -1 -1 -1 -1 -1 -1 -1 -1 -1 -1 -1 -0 0 0 0 -1 -1 -1 -1 -1 -1 -1
0 0 -0 -0 -1 -1 -1 -1 -1 -1 -1 -1 -1 -1 -1 -1 -1 -1 -1 -1 -1 -1 -1 -1 -1 -1 -1 -1 -1 -1 -1 -1 0 0 -0 0 -1 -1 -1 -1 -1 -1 -1
0 0 0 0 -0 -0 -0 -1 -1 -1 -1 -2 -2 -1 -1 -1 -1 -1 -1 -1 -1 -1 -1 -1 -1 -1 -1 -1 -0 0 -1 -1 1 0 0 0 -1 -1 -1 -1 -1 -1 -1
1 1 0 0 0 0 0 -0 -1 -2 -1 -2 -2 -2 -1 1 1 1 -0 -1 -1 -1 -1 -1 -1 -1 0 1 2 2 1 3 2 1 0 -2 -1 -1 -1 -1 -1 -1 -1
2 2 0 0 1 1 -0 0 0 0 1 1 0 1 2 3 1 1 -0 -1 -1 -1 -1 -1 -1 -1 2 7 8 3 4 4 3 2 1 -1 -1 -1 -1 -1 -1 -1 -1
2 1 1 1 1 1 0 0 0 1 1 2 1 1 2 2 1 1 2 2 4 1 5 4 5 6 6 7 9 6 4 5 4 3 0 -1 -1 -1 -1 -1 -1 -1 -1
5 3 1 1 1 1 0 0 0 1 1 2 2 1 2 4 4 3 3 3 5 5 7 7 8 8 9 8 9 6 4 4 4 3 1 -1 -1 -1 -1 -1 -1 -1 -1
10 10 6 1 1 1 1 1 1 1 1 2 2 2 1 1 4 5 5 5 6 7 7 8 9 9 10 10 10 8 4 4 4 4 4 -1 -1 -1 -1 -1 -1 -0 -0
9 9 9 6 0 1 1 2 2 1 1 2 3 2 2 3 3 3 4 7 7 8 8 9 9 10 10 11 10 10 7 6 5 6 5 4 0 -0 0 1 0 -0 -1
8 7 7 6 5 3 2 2 2 2 2 3 4 4 4 4 5 4 5 6 6 7 8 9 10 10 11 10 11 11 10 7 7 7 6 6 4 1 2 2 2 1 1
8 8 6 5 6 7 6 4 2 3 4 4 5 6 6 5 6 6 6 7 7 7 8 9 10 10 11 11 11 11 11 11 9 8 7 7 6 5 3 3 3 3 2
9 9 8 7 6 7 8 8 6 5 4 5 7 8 7 6 7 7 7 7 8 9 9 9 10 10 10 11 11 11 11 11 11 9 8 7 7 6 6 3 3 3 3
9 9 9 8 7 7 6 7 8 7 7 7 8 8 8 8 7 7 8 9 9 10 10 11 10 10 10 10 9 9 11 11 11 11 10 8 8 7 7 7 7 6 3
10 10 9 8 8 7 7 8 8 9 8 7 7 8 8 9 8 8 8 8 10 9 9 10 11 11 10 11 11 11 11 11 12 11 11 10 9 8 8 8 9 9 8
11 10 10 9 8 8 7 7 7 7 6 5 6 7 7 8 8 8 8 8 8 9 10 10 11 12 11 10 11 13 13 12 12 11 12 11 11 10 9 9 9 9 9
11 11 10 9 9 7 8 7 7 7 7 7 7 7 7 7 7 8 8 8 7 8 8 10 9 10 11 12 11 11 14 14 13 12 12 12 11 11 10 9 9 9 9
10 10 10 9 9 7 8 9 9 9 9 7 7 7 6 5 4 4 7 7 8 8 7 7 8 8 10 11 11 10 12 12 13 13 12 12 12 12 11 11 10 10 10
10 11 10 10 9 9 9 10 10 10 9 8 7 7 7 6 5 4 4 6 7 7 8 6 7 9 8 10 11 13 13 13 14 14 13 13 12 12 12 12 11 11 11
10 10 10 10 10 10 10 10 10 11 11 10 8 8 7 7 6 6 5 5 5 6 7 7 7 8 8 8 10 12 12 12 13 13 15 14 13 12 12 12 12 11 11